Barter Island, AK

10:19 PM AKDT on August 21, 2017 (GMT -0800)
Barter Island LRRS

Weather History for PABA - September, 2012

Change the Weather History Date:

Saturday, September 1, 2012

  Actual Average Record
Temperature  
Mean Temperature 43 °F -  
Max Temperature 43 °F 39 °F 95 °F (2001)
Min Temperature 42 °F 33 °F 27 °F (1996)
Degree Days  
Heating Degree Days 22    
Moisture  
Dew Point 42 °F    
Average Humidity 95    
Maximum Humidity 100    
Minimum Humidity 81    
Precipitation  
Precipitation 0.01 in - - ()
Sea Level Pressure  
Sea Level Pressure 29.74 in    
Wind  
Wind Speed 14 mph (ENE)    
Max Wind Speed 20 mph    
Max Gust Speed -    
Visibility 6 miles    
Events Rain    
Averages and records for this station are not official NWS values.
T = Trace of Precipitation, MM = Missing Value Source: NWS Daily Summary

Daily Weather History Graph

Daily Weather History Graph

Search for Another Location

Airport or City:

Trip Planner

Search our weather history database for the weather conditions in past years. The results will help you decide how hot, cold, wet, or windy it might be!

Date:

Astronomy

Sep. 01, 2012 Rise Set
Actual Time 5:51 AM AKDT 9:13 PM AKDT
Civil Twilight 4:36 AM AKDT 10:27 PM AKDT
Nautical Twilight 2:06 AM AKDT 1:04 AM AKDT
Astronomical Twilight Sun does not set Sun does not set
Moon 7:58 PM AKDT (9/1) 8:29 AM AKDT (9/1)
Length of Visible Light 17h 51m
Length of Day
15h 21m
Full, 98% of the Moon is Illuminated
Sep 1
Full
Sep 8
Last Quarter
Sep 15
New
Sep 22
First Quarter
Sep 29
Full

Hourly Weather History & Observations

Time (AKDT) Temp. Windchill Dew Point Humidity Pressure Visibility Wind Dir Wind Speed Gust Speed Precip Events Conditions
12:01 AM 42.1 °F 33.3 °F 37.9 °F 85% 29.83 in 10.0 mi East 19.6 mph - 0.00 in Rain Light Rain
12:14 AM 42.8 °F 34.5 °F 37.4 °F 81% 29.83 in 10.0 mi East 18.4 mph - 0.00 in Rain Light Rain
1:01 AM 42.1 °F 33.6 °F 39.0 °F 89% 29.83 in 10.0 mi East 18.4 mph - 0.01 in Rain Light Rain
2:01 AM 42.1 °F 33.9 °F 39.0 °F 89% 29.81 in 10.0 mi East 17.3 mph - 0.00 in Rain Light Rain
3:01 AM 43.0 °F 36.0 °F 39.9 °F 89% 29.81 in 10.0 mi East 13.8 mph - 0.00 in   Overcast
4:01 AM 43.0 °F 35.7 °F 39.9 °F 89% 29.80 in 7.0 mi East 15.0 mph - N/A   Overcast
4:10 AM 42.8 °F 35.1 °F 41.0 °F 93% 29.80 in 6.0 mi East 16.1 mph - N/A   Overcast
4:37 AM 42.8 °F 35.4 °F 39.2 °F 87% 29.79 in 10.0 mi East 15.0 mph - N/A   Overcast
5:01 AM 43.0 °F 34.8 °F 41.0 °F 93% 29.78 in 9.0 mi East 18.4 mph - N/A   Overcast
6:01 AM 43.0 °F 36.0 °F 39.9 °F 89% 29.78 in 9.0 mi East 13.8 mph - N/A   Overcast
7:01 AM 43.0 °F 36.4 °F 41.0 °F 93% 29.77 in 8.0 mi East 12.7 mph - N/A   Overcast
8:01 AM 44.1 °F 36.8 °F 41.0 °F 89% 29.76 in 8.0 mi East 16.1 mph - N/A   Overcast
9:01 AM 44.1 °F 36.8 °F 39.9 °F 85% 29.75 in 9.0 mi East 16.1 mph - N/A   Overcast
10:01 AM 44.1 °F 36.5 °F 39.9 °F 85% 29.75 in 9.0 mi East 17.3 mph - N/A   Overcast
10:37 AM 42.8 °F 35.8 °F 41.0 °F 93% 29.74 in 8.0 mi East 13.8 mph - N/A   Overcast
11:01 AM 44.1 °F 36.8 °F 41.0 °F 89% 29.74 in 9.0 mi East 16.1 mph - N/A   Overcast
12:01 PM 44.1 °F 37.4 °F 41.0 °F 89% 29.73 in 8.0 mi East 13.8 mph - N/A   Overcast
1:01 PM 43.0 °F 36.8 °F 41.0 °F 93% 29.73 in 6.0 mi East 11.5 mph - N/A   Overcast
2:01 PM 44.1 °F 38.6 °F 42.1 °F 93% 29.73 in 9.0 mi East 10.4 mph - N/A   Overcast
3:01 PM 44.1 °F 38.6 °F 42.1 °F 93% 29.72 in 8.0 mi East 10.4 mph - N/A   Overcast
3:39 PM 42.8 °F 37.5 °F 41.0 °F 93% 29.72 in 7.0 mi ENE 9.2 mph - N/A   Overcast
4:01 PM 43.0 °F 36.8 °F 41.0 °F 93% 29.72 in 8.0 mi ENE 11.5 mph - N/A   Overcast
5:01 PM 42.1 °F 36.1 °F 42.1 °F 100% 29.71 in 4.0 mi ENE 10.4 mph - N/A   Overcast
5:14 PM 42.8 °F 37.0 °F 42.8 °F 100% 29.72 in 1.8 mi ENE 10.4 mph - N/A   Overcast
5:20 PM 42.8 °F 37.0 °F 42.8 °F 100% 29.72 in 2.0 mi ENE 10.4 mph - N/A   Overcast
5:29 PM 42.8 °F 36.6 °F 42.8 °F 100% 29.72 in 3.0 mi ENE 11.5 mph - N/A   Overcast
5:39 PM 42.8 °F 36.6 °F 42.8 °F 100% 29.72 in 1.8 mi ENE 11.5 mph - N/A   Overcast
5:54 PM 42.8 °F 36.6 °F 42.8 °F 100% 29.71 in 1.0 mi ENE 11.5 mph - N/A   Overcast
6:01 PM 42.8 °F 37.0 °F 42.8 °F 100% 29.71 in 1.0 mi NE 10.4 mph - N/A   Overcast
6:08 PM 42.8 °F 36.6 °F 42.8 °F 100% 29.71 in 2.0 mi ENE 11.5 mph - N/A   Overcast
6:18 PM 42.8 °F 37.0 °F 42.8 °F 100% 29.71 in 6.0 mi ENE 10.4 mph - N/A   Overcast
6:25 PM 42.8 °F 37.0 °F 42.8 °F 100% 29.71 in 3.0 mi ENE 10.4 mph - N/A   Overcast
6:32 PM 42.8 °F 37.0 °F 42.8 °F 100% 29.71 in 1.8 mi ENE 10.4 mph - N/A   Overcast
6:43 PM 44.6 °F 39.2 °F 42.8 °F 93% 29.72 in 1.8 mi ENE 10.4 mph - N/A   Overcast
6:51 PM 42.8 °F 37.5 °F 42.8 °F 100% 29.72 in 2.0 mi ENE 9.2 mph - N/A   Overcast
6:57 PM 42.8 °F 37.0 °F 42.8 °F 100% 29.72 in 1.0 mi ENE 10.4 mph - 0.00 in Rain Light Rain
6:58 PM 43.0 °F 37.2 °F 42.1 °F 97% 29.72 in 1.0 mi ENE 10.4 mph - 0.00 in Rain Light Rain
7:13 PM 42.8 °F 37.0 °F 42.8 °F 100% 29.72 in 1.5 mi ENE 10.4 mph - 0.00 in   Overcast
7:15 PM 44.6 °F 39.2 °F 42.8 °F 93% 29.71 in 2.0 mi ENE 10.4 mph - 0.00 in   Overcast
7:18 PM 44.6 °F 39.2 °F 42.8 °F 93% 29.71 in 3.0 mi ENE 10.4 mph - 0.00 in   Overcast
7:27 PM 42.8 °F 37.0 °F 42.8 °F 100% 29.72 in 1.8 mi NE 10.4 mph - 0.00 in   Overcast
7:34 PM 42.8 °F 37.0 °F 42.8 °F 100% 29.72 in 0.8 mi NE 10.4 mph - 0.00 in Rain Light Rain
7:44 PM 42.8 °F 36.6 °F 42.8 °F 100% 29.71 in 1.0 mi ENE 11.5 mph - 0.00 in Rain Light Rain
7:57 PM 42.8 °F 37.0 °F 42.8 °F 100% 29.71 in 0.8 mi ENE 10.4 mph - 0.00 in   Overcast
8:01 PM 43.0 °F 36.8 °F 43.0 °F 100% 29.72 in 0.8 mi ENE 11.5 mph - 0.00 in   Overcast
8:16 PM 44.6 °F 39.2 °F 42.8 °F 93% 29.72 in 1.0 mi East 10.4 mph - 0.00 in Rain Light Rain
8:43 PM 44.6 °F 39.7 °F 42.8 °F 93% 29.72 in 1.5 mi East 9.2 mph - 0.00 in Rain Light Rain
8:52 PM 44.6 °F 40.2 °F 42.8 °F 93% 29.72 in 3.0 mi East 8.1 mph - 0.00 in   Overcast
9:01 PM 44.1 °F 39.5 °F 43.0 °F 96% 29.72 in 6.0 mi East 8.1 mph - 0.00 in   Overcast
9:37 PM 44.6 °F 38.1 °F 42.8 °F 93% 29.71 in 8.0 mi East 13.8 mph - N/A   Overcast
9:45 PM 44.6 °F 38.1 °F 42.8 °F 93% 29.71 in 10.0 mi East 13.8 mph - N/A   Overcast
10:01 PM 44.1 °F 37.7 °F 43.0 °F 96% 29.71 in 9.0 mi East 12.7 mph - N/A   Overcast
10:06 PM 44.6 °F 38.1 °F 42.8 °F 93% 29.71 in 10.0 mi East 13.8 mph - N/A   Overcast
10:33 PM 42.8 °F 36.6 °F 42.8 °F 100% 29.71 in 9.0 mi ENE 11.5 mph - N/A   Overcast
10:43 PM 42.8 °F 35.4 °F 42.8 °F 100% 29.71 in 9.0 mi East 15.0 mph - N/A   Overcast
11:01 PM 44.1 °F 37.7 °F 43.0 °F 96% 29.71 in 8.0 mi East 12.7 mph - 0.00 in Rain Light Rain
11:10 PM 42.8 °F 36.2 °F 42.8 °F 100% 29.71 in 8.0 mi East 12.7 mph - 0.00 in Rain Light Rain
11:47 PM 42.8 °F 36.6 °F 42.8 °F 100% 29.71 in 10.0 mi East 11.5 mph - 0.00 in   Overcast